Location: State Camp
(41.2367°N, 77.7828°W)
Time: 00:22:24
(UTC-04:00)

Hubble Space Telescope - Visible Passes

Search period start: 01 July 2016 00:00
Search period end: 11 July 2016 00:00
Orbit: 539 x 543 km, 28.5° (Epoch: 30 June)

Date Brightness Start Highest point End Pass type
(mag) Time Alt. Az. Time Alt. Az. Time Alt. Az.
02 Jul 3.1 22:45:46 10° SSW 22:46:01 11° SSW 22:46:01 11° SSW visible
03 Jul 2.9 22:36:01 10° SW 22:36:57 12° SSW 22:36:57 12° SSW visible
04 Jul 2.9 22:26:21 10° SW 22:27:45 13° SSW 22:27:45 13° SSW visible
05 Jul 2.9 22:16:48 10° SSW 22:18:25 12° S 22:18:30 12° S visible
06 Jul 3.0 22:07:29 10° SSW 22:08:35 11° SSW 22:09:11 11° S visible
